Time,TemperatureF,DewpointF,PressureIn,WindDirection,WindDirectionDegrees,WindSpeedMPH,WindSpeedGustMPH,Humidity,HourlyPrecipIn,Conditions,Clouds,dailyrainin,SoftwareType,DateUTC
2014-01-05 00:00:00,32.2,26.0,30.20,WNW,292,6.5,12.0,79,0.00,,,0.00,Rainwise IP-100,2014-01-05 05:00:00,
2014-01-05 00:01:00,32.2,26.0,30.20,WSW,247,10.3,14.0,79,0.00,,,0.00,Rainwise IP-100,2014-01-05 05:01:00,
2014-01-05 00:02:00,32.1,26.0,30.20,West,270,8.2,14.0,79,0.00,,,0.00,Rainwise IP-100,2014-01-05 05:02:00,
2014-01-05 00:07:00,32.0,26.0,30.19,NW,315,7.9,16.0,79,0.00,,,0.00,Rainwise IP-100,2014-01-05 05:07:00,
2014-01-05 00:12:00,32.0,26.0,30.20,West,270,8.9,19.0,79,0.00,,,0.00,Rainwise IP-100,2014-01-05 05:12:00,
2014-01-05 00:17:00,32.0,26.0,30.20,West,270,15.4,15.4,79,0.00,,,0.00,Rainwise IP-100,2014-01-05 05:17:00,
2014-01-05 00:22:00,32.0,26.0,30.21,West,270,8.4,16.0,79,0.00,,,0.00,Rainwise IP-100,2014-01-05 05:22:00,
2014-01-05 00:27:00,31.9,26.0,30.21,WNW,292,10.3,13.0,79,0.00,,,0.00,Rainwise IP-100,2014-01-05 05:27:00,
2014-01-05 00:32:00,31.9,26.0,30.21,WNW,292,5.4,19.0,79,0.00,,,0.00,Rainwise IP-100,2014-01-05 05:32:00,
2014-01-05 00:37:00,31.8,26.0,30.21,NW,315,5.6,14.0,79,0.00,,,0.00,Rainwise IP-100,2014-01-05 05:37:00,
2014-01-05 00:42:00,31.8,26.0,30.22,West,270,11.2,15.0,79,0.00,,,0.00,Rainwise IP-100,2014-01-05 05:42:00,
2014-01-05 00:47:00,31.7,26.0,30.22,NW,315,12.8,17.0,79,0.00,,,0.00,Rainwise IP-100,2014-01-05 05:47:00,
2014-01-05 00:52:00,31.7,26.0,30.22,WNW,292,7.7,20.0,79,0.00,,,0.00,Rainwise IP-100,2014-01-05 05:52:00,
2014-01-05 00:57:00,31.6,26.0,30.23,NW,315,12.8,15.0,79,0.00,,,0.00,Rainwise IP-100,2014-01-05 05:57:00,
2014-01-05 01:02:00,31.5,26.0,30.23,NW,315,7.7,13.0,79,0.00,,,0.00,Rainwise IP-100,2014-01-05 06:02:00,
2014-01-05 01:07:00,31.4,24.0,30.24,NNW,337,4.4,16.0,79,0.00,,,0.00,Rainwise IP-100,2014-01-05 06:07:00,
2014-01-05 01:12:00,31.2,24.0,30.24,NW,315,6.8,11.0,79,0.00,,,0.00,Rainwise IP-100,2014-01-05 06:12:00,
2014-01-05 01:17:00,31.1,26.0,30.25,NW,315,8.2,13.0,80,0.00,,,0.00,Rainwise IP-100,2014-01-05 06:17:00,
2014-01-05 01:22:00,31.1,26.0,30.25,NNW,337,5.4,13.0,80,0.00,,,0.00,Rainwise IP-100,2014-01-05 06:22:00,
2014-01-05 01:27:00,30.7,26.0,30.26,WNW,292,0.0,13.0,81,0.00,,,0.00,Rainwise IP-100,2014-01-05 06:27:00,
2014-01-05 01:32:00,29.6,26.0,30.26,North,0,5.8,5.8,81,0.00,,,0.00,Rainwise IP-100,2014-01-05 06:32:00,
2014-01-05 01:37:00,27.8,23.0,30.25,NE,45,6.1,15.0,83,0.00,,,0.00,Rainwise IP-100,2014-01-05 06:37:00,
2014-01-05 01:42:00,26.1,23.0,30.25,ENE,67,6.8,13.0,85,0.00,,,0.00,Rainwise IP-100,2014-01-05 06:42:00,
2014-01-05 01:47:00,25.6,23.0,30.25,East,90,5.8,12.0,87,0.00,,,0.00,Rainwise IP-100,2014-01-05 06:47:00,
2014-01-05 01:52:00,25.9,23.0,30.25,ENE,67,8.2,9.0,88,0.00,,,0.00,Rainwise IP-100,2014-01-05 06:52:00,
2014-01-05 01:57:00,26.2,23.0,30.25,ENE,67,4.9,10.0,89,0.00,,,0.00,Rainwise IP-100,2014-01-05 06:57:00,
2014-01-05 02:02:00,26.5,24.0,30.25,East,90,0.0,7.0,89,0.00,,,0.00,Rainwise IP-100,2014-01-05 07:02:00,
2014-01-05 02:07:00,26.7,24.0,30.26,SSE,157,0.0,1.0,88,0.00,,,0.00,Rainwise IP-100,2014-01-05 07:07:00,
2014-01-05 02:12:00,26.8,24.0,30.25,SSE,157,1.4,2.0,88,0.00,,,0.00,Rainwise IP-100,2014-01-05 07:12:00,
2014-01-05 02:17:00,27.1,24.0,30.25,SSE,157,1.2,2.0,87,0.00,,,0.00,Rainwise IP-100,2014-01-05 07:17:00,
2014-01-05 02:22:00,27.5,24.0,30.25,SE,135,2.1,3.0,86,0.00,,,0.00,Rainwise IP-100,2014-01-05 07:22:00,
2014-01-05 02:27:00,27.6,24.0,30.25,SE,135,0.0,2.0,86,0.00,,,0.00,Rainwise IP-100,2014-01-05 07:27:00,
2014-01-05 02:32:00,27.7,24.0,30.25,SE,135,0.0,1.0,86,0.00,,,0.00,Rainwise IP-100,2014-01-05 07:32:00,
2014-01-05 02:37:00,27.8,24.0,30.26,WSW,247,2.1,2.1,86,0.00,,,0.00,Rainwise IP-100,2014-01-05 07:37:00,
2014-01-05 02:42:00,27.8,24.0,30.26,NNW,337,0.0,3.0,85,0.00,,,0.00,Rainwise IP-100,2014-01-05 07:42:00,
2014-01-05 02:47:00,27.7,24.0,30.26,NW,315,1.2,6.0,85,0.00,,,0.00,Rainwise IP-100,2014-01-05 07:47:00,
2014-01-05 02:52:00,27.7,24.0,30.26,NW,315,2.3,3.0,84,0.00,,,0.00,Rainwise IP-100,2014-01-05 07:52:00,
2014-01-05 02:57:00,27.7,23.0,30.26,West,270,7.2,10.0,83,0.00,,,0.00,Rainwise IP-100,2014-01-05 07:57:00,
2014-01-05 03:02:00,27.8,23.0,30.26,West,270,3.0,7.0,82,0.00,,,0.00,Rainwise IP-100,2014-01-05 08:02:00,
2014-01-05 03:07:00,27.8,23.0,30.25,WNW,292,3.7,8.0,81,0.00,,,0.00,Rainwise IP-100,2014-01-05 08:07:00,
2014-01-05 03:12:00,27.6,23.0,30.25,WSW,247,1.2,5.0,80,0.00,,,0.00,Rainwise IP-100,2014-01-05 08:12:00,
2014-01-05 03:17:00,27.5,23.0,30.25,NW,315,5.6,5.6,80,0.00,,,0.00,Rainwise IP-100,2014-01-05 08:17:00,
2014-01-05 03:22:00,27.4,23.0,30.24,NW,315,0.0,6.0,80,0.00,,,0.00,Rainwise IP-100,2014-01-05 08:22:00,
2014-01-05 03:27:00,27.2,23.0,30.24,NNW,337,3.3,4.0,80,0.00,,,0.00,Rainwise IP-100,2014-01-05 08:27:00,
2014-01-05 03:32:00,27.2,23.0,30.24,East,90,0.0,8.0,80,0.00,,,0.00,Rainwise IP-100,2014-01-05 08:32:00,
2014-01-05 03:37:00,27.3,23.0,30.23,NW,315,8.9,12.0,80,0.00,,,0.00,Rainwise IP-100,2014-01-05 08:37:00,
2014-01-05 03:42:00,27.4,23.0,30.23,NNW,337,4.2,11.0,79,0.00,,,0.00,Rainwise IP-100,2014-01-05 08:42:00,
2014-01-05 03:47:00,27.5,23.0,30.23,WNW,292,5.4,13.0,79,0.00,,,0.00,Rainwise IP-100,2014-01-05 08:47:00,
2014-01-05 03:52:00,27.5,23.0,30.24,NW,315,7.9,10.0,78,0.00,,,0.00,Rainwise IP-100,2014-01-05 08:52:00,
2014-01-05 03:57:00,27.4,23.0,30.24,NNW,337,0.0,8.0,79,0.00,,,0.00,Rainwise IP-100,2014-01-05 08:57:00,
2014-01-05 04:02:00,27.4,23.0,30.24,NNW,337,2.3,8.0,81,0.00,,,0.00,Rainwise IP-100,2014-01-05 09:02:00,
2014-01-05 04:07:00,27.3,23.0,30.24,North,0,1.4,9.0,83,0.00,,,0.00,Rainwise IP-100,2014-01-05 09:07:00,
2014-01-05 04:12:00,27.3,24.0,30.24,NW,315,0.0,11.0,84,0.00,,,0.00,Rainwise IP-100,2014-01-05 09:12:00,
2014-01-05 04:17:00,27.2,24.0,30.24,North,0,0.0,9.0,84,0.00,,,0.00,Rainwise IP-100,2014-01-05 09:17:00,
2014-01-05 04:22:00,27.1,24.0,30.25,ENE,67,2.8,4.0,84,0.00,,,0.00,Rainwise IP-100,2014-01-05 09:22:00,
2014-01-05 04:27:00,26.9,23.0,30.25,West,270,1.4,4.0,83,0.00,,,0.00,Rainwise IP-100,2014-01-05 09:27:00,
2014-01-05 04:32:00,26.8,23.0,30.25,NW,315,1.6,5.0,83,0.00,,,0.00,Rainwise IP-100,2014-01-05 09:32:00,
2014-01-05 04:37:00,26.7,24.0,30.25,North,0,3.5,8.0,84,0.00,,,0.00,Rainwise IP-100,2014-01-05 09:37:00,
2014-01-05 04:42:00,26.6,24.0,30.25,NNW,337,4.4,13.0,84,0.00,,,0.00,Rainwise IP-100,2014-01-05 09:42:00,
2014-01-05 04:47:00,26.6,23.0,30.25,NW,315,4.2,10.0,83,0.00,,,0.00,Rainwise IP-100,2014-01-05 09:47:00,
2014-01-05 04:52:00,26.5,23.0,30.25,WNW,292,0.0,7.0,81,0.00,,,0.00,Rainwise IP-100,2014-01-05 09:52:00,
2014-01-05 04:57:00,26.4,21.0,30.25,NW,315,4.0,5.0,78,0.00,,,0.00,Rainwise IP-100,2014-01-05 09:57:00,
2014-01-05 05:02:00,26.3,21.0,30.24,WNW,292,6.8,7.0,77,0.00,,,0.00,Rainwise IP-100,2014-01-05 10:02:00,
2014-01-05 05:07:00,26.2,21.0,30.24,NW,315,1.6,8.0,76,0.00,,,0.00,Rainwise IP-100,2014-01-05 10:07:00,
2014-01-05 05:12:00,26.0,21.0,30.25,WNW,292,3.3,5.0,76,0.00,,,0.00,Rainwise IP-100,2014-01-05 10:12:00,
2014-01-05 05:17:00,25.9,21.0,30.24,NW,315,8.2,10.0,75,0.00,,,0.00,Rainwise IP-100,2014-01-05 10:17:00,
2014-01-05 05:22:00,26.0,21.0,30.25,NW,315,5.8,9.0,76,0.00,,,0.00,Rainwise IP-100,2014-01-05 10:22:00,
2014-01-05 05:27:00,25.9,21.0,30.25,NNW,337,9.3,9.3,76,0.00,,,0.00,Rainwise IP-100,2014-01-05 10:27:00,
2014-01-05 05:32:00,25.9,21.0,30.25,NW,315,5.4,11.0,77,0.00,,,0.00,Rainwise IP-100,2014-01-05 10:32:00,
2014-01-05 05:37:00,25.8,21.0,30.24,NW,315,6.1,7.0,78,0.00,,,0.00,Rainwise IP-100,2014-01-05 10:37:00,
2014-01-05 05:42:00,25.8,21.0,30.25,NNW,337,1.6,6.0,78,0.00,,,0.00,Rainwise IP-100,2014-01-05 10:42:00,
2014-01-05 05:47:00,25.8,21.0,30.26,NW,315,9.1,9.1,80,0.00,,,0.00,Rainwise IP-100,2014-01-05 10:47:00,
2014-01-05 05:52:00,25.6,21.0,30.26,North,0,4.7,9.0,82,0.00,,,0.00,Rainwise IP-100,2014-01-05 10:52:00,
2014-01-05 05:57:00,25.1,23.0,30.26,WNW,292,8.4,10.0,83,0.00,,,0.00,Rainwise IP-100,2014-01-05 10:57:00,
2014-01-05 06:02:00,24.6,23.0,30.27,NW,315,9.8,11.0,83,0.00,,,0.00,Rainwise IP-100,2014-01-05 11:02:00,
2014-01-05 06:07:00,24.2,21.0,30.27,NW,315,6.3,13.0,84,0.00,,,0.00,Rainwise IP-100,2014-01-05 11:07:00,
2014-01-05 06:12:00,23.9,21.0,30.27,NW,315,7.2,11.0,84,0.00,,,0.00,Rainwise IP-100,2014-01-05 11:12:00,
2014-01-05 06:17:00,23.8,21.0,30.27,NNW,337,6.8,10.0,84,0.00,,,0.00,Rainwise IP-100,2014-01-05 11:17:00,
2014-01-05 06:22:00,23.8,21.0,30.27,NE,45,0.0,8.0,84,0.00,,,0.00,Rainwise IP-100,2014-01-05 11:22:00,
2014-01-05 06:27:00,23.9,21.0,30.27,North,0,0.0,5.0,84,0.00,,,0.00,Rainwise IP-100,2014-01-05 11:27:00,
2014-01-05 06:32:00,23.9,21.0,30.26,North,0,0.0,4.0,85,0.00,,,0.00,Rainwise IP-100,2014-01-05 11:32:00,
2014-01-05 06:37:00,23.8,21.0,30.27,NW,315,0.0,1.0,85,0.00,,,0.00,Rainwise IP-100,2014-01-05 11:37:00,
2014-01-05 06:42:00,23.8,21.0,30.27,North,0,0.0,2.0,86,0.00,,,0.00,Rainwise IP-100,2014-01-05 11:42:00,
2014-01-05 06:47:00,23.7,21.0,30.27,WNW,292,4.0,6.0,87,0.00,,,0.00,Rainwise IP-100,2014-01-05 11:47:00,
2014-01-05 06:52:00,23.3,18.0,30.27,NW,315,4.7,7.0,86,0.00,,,0.00,Rainwise IP-100,2014-01-05 11:52:00,
2014-01-05 06:57:00,23.0,18.0,30.27,NW,315,4.9,7.0,86,0.00,,,0.00,Rainwise IP-100,2014-01-05 11:57:00,
2014-01-05 07:02:00,22.9,18.0,30.27,NW,315,5.8,6.0,85,0.00,,,0.00,Rainwise IP-100,2014-01-05 12:02:00,
2014-01-05 07:07:00,23.1,18.0,30.27,NNW,337,4.4,6.0,85,0.00,,,0.00,Rainwise IP-100,2014-01-05 12:07:00,
2014-01-05 07:12:00,23.4,18.0,30.27,NW,315,4.9,6.0,86,0.00,,,0.00,Rainwise IP-100,2014-01-05 12:12:00,
2014-01-05 07:17:00,23.5,21.0,30.27,NW,315,5.6,6.0,85,0.00,,,0.00,Rainwise IP-100,2014-01-05 12:17:00,
2014-01-05 07:22:00,23.7,21.0,30.28,NW,315,2.8,6.0,85,0.00,,,0.00,Rainwise IP-100,2014-01-05 12:22:00,
2014-01-05 07:27:00,23.8,21.0,30.28,NW,315,5.8,6.0,86,0.00,,,0.00,Rainwise IP-100,2014-01-05 12:27:00,
2014-01-05 07:32:00,23.9,21.0,30.29,North,0,1.9,7.0,86,0.00,,,0.00,Rainwise IP-100,2014-01-05 12:32:00,
2014-01-05 07:37:00,24.0,21.0,30.28,NNW,337,7.2,7.2,86,0.00,,,0.00,Rainwise IP-100,2014-01-05 12:37:00,
2014-01-05 07:42:00,24.0,21.0,30.29,NNW,337,3.5,7.0,86,0.00,,,0.00,Rainwise IP-100,2014-01-05 12:42:00,
2014-01-05 07:47:00,24.2,21.0,30.29,NW,315,4.0,8.0,85,0.00,,,0.00,Rainwise IP-100,2014-01-05 12:47:00,
2014-01-05 07:52:00,24.3,21.0,30.30,NW,315,3.3,6.0,84,0.00,,,0.00,Rainwise IP-100,2014-01-05 12:52:00,
2014-01-05 07:57:00,24.4,21.0,30.30,NW,315,4.4,5.0,82,0.00,,,0.00,Rainwise IP-100,2014-01-05 12:57:00,
2014-01-05 08:02:00,24.6,21.0,30.31,NW,315,4.0,5.0,82,0.00,,,0.00,Rainwise IP-100,2014-01-05 13:02:00,
2014-01-05 08:07:00,24.8,21.0,30.31,NNW,337,0.0,6.0,82,0.00,,,0.00,Rainwise IP-100,2014-01-05 13:07:00,
2014-01-05 08:12:00,25.2,23.0,30.31,NNW,337,4.0,5.0,83,0.00,,,0.00,Rainwise IP-100,2014-01-05 13:12:00,
2014-01-05 08:17:00,25.8,23.0,30.31,NNW,337,0.0,4.0,86,0.00,,,0.00,Rainwise IP-100,2014-01-05 13:17:00,
2014-01-05 08:22:00,26.2,23.0,30.30,NNW,337,0.0,1.0,89,0.00,,,0.00,Rainwise IP-100,2014-01-05 13:22:00,
2014-01-05 08:27:00,26.7,26.0,30.31,NW,315,0.0,0.0,90,0.00,,,0.00,Rainwise IP-100,2014-01-05 13:27:00,
2014-01-05 08:32:00,27.2,26.0,30.32,NW,315,0.0,1.0,91,0.00,,,0.00,Rainwise IP-100,2014-01-05 13:32:00,
2014-01-05 08:37:00,27.9,26.0,30.32,NW,315,0.0,1.0,92,0.00,,,0.00,Rainwise IP-100,2014-01-05 13:37:00,
2014-01-05 08:42:00,28.5,28.0,30.32,North,0,0.0,2.0,93,0.00,,,0.00,Rainwise IP-100,2014-01-05 13:42:00,
2014-01-05 08:47:00,29.4,28.0,30.32,North,0,0.0,2.0,93,0.00,,,0.00,Rainwise IP-100,2014-01-05 13:47:00,
2014-01-05 08:52:00,30.4,29.0,30.32,North,0,0.0,1.0,94,0.00,,,0.00,Rainwise IP-100,2014-01-05 13:52:00,
2014-01-05 08:57:00,31.3,29.0,30.32,North,0,0.0,1.0,94,0.00,,,0.00,Rainwise IP-100,2014-01-05 13:57:00,
2014-01-05 09:02:00,32.0,31.0,30.32,NNW,337,0.0,0.0,95,0.00,,,0.00,Rainwise IP-100,2014-01-05 14:02:00,
2014-01-05 09:07:00,32.5,32.0,30.32,NW,315,0.0,1.0,95,0.00,,,0.00,Rainwise IP-100,2014-01-05 14:07:00,
2014-01-05 09:12:00,32.8,32.0,30.32,West,270,0.0,0.0,96,0.00,,,0.00,Rainwise IP-100,2014-01-05 14:12:00,
2014-01-05 09:17:00,32.9,32.0,30.32,NNW,337,0.0,1.0,96,0.00,,,0.00,Rainwise IP-100,2014-01-05 14:17:00,
2014-01-05 09:22:00,32.9,32.0,30.33,NNE,22,1.4,4.0,96,0.00,,,0.00,Rainwise IP-100,2014-01-05 14:22:00,
2014-01-05 09:27:00,32.5,32.0,30.33,SSE,157,0.0,2.0,96,0.00,,,0.00,Rainwise IP-100,2014-01-05 14:27:00,
2014-01-05 09:33:00,31.9,31.0,30.33,NNE,22,0.0,4.0,96,0.00,,,0.00,Rainwise IP-100,2014-01-05 14:33:00,
2014-01-05 09:38:00,31.5,31.0,30.33,NNW,337,0.0,2.0,96,0.00,,,0.00,Rainwise IP-100,2014-01-05 14:38:00,
2014-01-05 09:43:00,31.3,29.0,30.33,North,0,0.0,4.0,96,0.00,,,0.00,Rainwise IP-100,2014-01-05 14:43:00,
2014-01-05 09:48:00,31.2,29.0,30.34,West,270,0.0,1.0,96,0.00,,,0.00,Rainwise IP-100,2014-01-05 14:48:00,
2014-01-05 09:53:00,31.1,29.0,30.33,NNE,22,0.0,0.0,96,0.00,,,0.00,Rainwise IP-100,2014-01-05 14:53:00,
2014-01-05 09:58:00,31.0,29.0,30.33,NNE,22,0.0,1.0,96,0.00,,,0.00,Rainwise IP-100,2014-01-05 14:58:00,
2014-01-05 10:03:00,31.0,29.0,30.32,NE,45,0.0,4.0,96,0.00,,,0.00,Rainwise IP-100,2014-01-05 15:03:00,
2014-01-05 10:08:00,31.1,29.0,30.32,ENE,67,0.0,3.0,96,0.00,,,0.00,Rainwise IP-100,2014-01-05 15:08:00,
2014-01-05 10:13:00,31.4,29.0,30.31,ENE,67,0.0,0.0,97,0.00,,,0.00,Rainwise IP-100,2014-01-05 15:13:00,
2014-01-05 10:18:00,31.1,29.0,30.31,East,90,2.8,3.0,96,0.00,,,0.00,Rainwise IP-100,2014-01-05 15:18:00,
2014-01-05 10:23:00,30.0,29.0,30.31,East,90,1.4,3.0,95,0.00,,,0.00,Rainwise IP-100,2014-01-05 15:23:00,
2014-01-05 10:28:00,30.1,29.0,30.31,East,90,0.0,1.0,95,0.00,,,0.00,Rainwise IP-100,2014-01-05 15:28:00,
2014-01-05 10:33:00,31.3,29.0,30.31,NNE,22,0.0,0.0,96,0.00,,,0.00,Rainwise IP-100,2014-01-05 15:33:00,
2014-01-05 10:38:00,32.0,31.0,30.31,NNE,22,0.0,1.0,96,0.00,,,0.00,Rainwise IP-100,2014-01-05 15:38:00,
2014-01-05 10:43:00,32.9,32.0,30.31,NNE,22,0.0,1.0,97,0.00,,,0.00,Rainwise IP-100,2014-01-05 15:43:00,
2014-01-05 10:48:00,33.6,33.0,30.31,NNE,22,0.0,2.0,97,0.00,,,0.00,Rainwise IP-100,2014-01-05 15:48:00,
2014-01-05 10:53:00,34.1,33.0,30.30,North,0,2.3,3.0,96,0.00,,,0.00,Rainwise IP-100,2014-01-05 15:53:00,
2014-01-05 10:58:00,34.5,33.0,30.30,North,0,0.0,2.0,96,0.00,,,0.00,Rainwise IP-100,2014-01-05 15:58:00,
2014-01-05 11:03:00,34.6,33.0,30.30,North,0,0.0,1.0,95,0.00,,,0.00,Rainwise IP-100,2014-01-05 16:03:00,
2014-01-05 11:08:00,33.7,33.0,30.29,NE,45,2.8,5.0,94,0.00,,,0.00,Rainwise IP-100,2014-01-05 16:08:00,
2014-01-05 11:13:00,32.1,31.0,30.29,NE,45,1.9,4.0,92,0.00,,,0.00,Rainwise IP-100,2014-01-05 16:13:00,
2014-01-05 11:18:00,32.1,29.0,30.28,NE,45,1.9,4.0,90,0.00,,,0.00,Rainwise IP-100,2014-01-05 16:18:00,
2014-01-05 11:23:00,32.2,29.0,30.29,ENE,67,0.0,4.0,89,0.00,,,0.00,Rainwise IP-100,2014-01-05 16:23:00,
2014-01-05 11:28:00,32.3,29.0,30.28,NE,45,1.6,3.0,87,0.00,,,0.00,Rainwise IP-100,2014-01-05 16:28:00,
2014-01-05 11:33:00,32.7,31.0,30.27,ENE,67,2.1,4.0,87,0.00,,,0.00,Rainwise IP-100,2014-01-05 16:33:00,
2014-01-05 11:38:00,31.9,28.0,30.28,NE,45,2.3,4.0,85,0.00,,,0.00,Rainwise IP-100,2014-01-05 16:38:00,
2014-01-05 11:43:00,31.8,28.0,30.28,NE,45,1.4,4.0,83,0.00,,,0.00,Rainwise IP-100,2014-01-05 16:43:00,
2014-01-05 11:48:00,31.9,28.0,30.28,ENE,67,3.7,3.7,83,0.00,,,0.00,Rainwise IP-100,2014-01-05 16:48:00,
2014-01-05 11:53:00,31.8,28.0,30.29,ENE,67,0.0,3.0,81,0.00,,,0.00,Rainwise IP-100,2014-01-05 16:53:00,
2014-01-05 11:58:00,32.7,29.0,30.29,ENE,67,0.0,1.0,82,0.00,,,0.00,Rainwise IP-100,2014-01-05 16:58:00,
2014-01-05 12:03:00,34.0,31.0,30.28,ENE,67,1.4,3.0,84,0.00,,,0.00,Rainwise IP-100,2014-01-05 17:03:00,
2014-01-05 12:08:00,33.2,29.0,30.29,ENE,67,1.9,4.0,82,0.00,,,0.00,Rainwise IP-100,2014-01-05 17:08:00,
2014-01-05 12:13:00,32.1,26.0,30.28,NE,45,2.1,4.0,79,0.00,,,0.00,Rainwise IP-100,2014-01-05 17:13:00,
2014-01-05 12:18:00,32.3,26.0,30.28,NE,45,0.0,4.0,78,0.00,,,0.00,Rainwise IP-100,2014-01-05 17:18:00,
2014-01-05 12:23:00,33.3,28.0,30.29,NE,45,0.0,1.0,79,0.00,,,0.00,Rainwise IP-100,2014-01-05 17:23:00,
2014-01-05 12:28:00,34.5,29.0,30.29,NE,45,0.0,1.0,80,0.06,,,0.01,Rainwise IP-100,2014-01-05 17:28:00,
2014-01-05 12:33:00,35.2,29.0,30.29,ENE,67,0.0,3.0,80,0.06,,,0.01,Rainwise IP-100,2014-01-05 17:33:00,
2014-01-05 12:38:00,35.1,29.0,30.28,NE,45,1.9,4.0,80,0.00,,,0.01,Rainwise IP-100,2014-01-05 17:38:00,
2014-01-05 12:43:00,33.6,28.0,30.28,ENE,67,2.3,4.0,77,0.00,,,0.01,Rainwise IP-100,2014-01-05 17:43:00,
2014-01-05 12:48:00,32.3,26.0,30.28,ENE,67,2.6,3.0,76,0.00,,,0.01,Rainwise IP-100,2014-01-05 17:48:00,
2014-01-05 12:53:00,32.2,26.0,30.28,ENE,67,2.3,3.0,76,0.00,,,0.01,Rainwise IP-100,2014-01-05 17:53:00,
2014-01-05 12:58:00,32.2,26.0,30.28,ENE,67,4.0,4.0,77,0.00,,,0.01,Rainwise IP-100,2014-01-05 17:58:00,
2014-01-05 13:03:00,32.2,26.0,30.28,East,90,3.3,4.0,76,0.00,,,0.01,Rainwise IP-100,2014-01-05 18:03:00,
2014-01-05 13:08:00,32.4,26.0,30.28,East,90,1.6,3.0,76,0.00,,,0.01,Rainwise IP-100,2014-01-05 18:08:00,
2014-01-05 13:13:00,32.9,26.0,30.29,East,90,2.1,3.0,76,0.00,,,0.01,Rainwise IP-100,2014-01-05 18:13:00,
2014-01-05 13:18:00,33.3,26.0,30.29,SE,135,2.1,3.0,76,0.00,,,0.01,Rainwise IP-100,2014-01-05 18:18:00,
2014-01-05 13:23:00,33.7,28.0,30.29,SE,135,3.7,4.0,75,0.00,,,0.01,Rainwise IP-100,2014-01-05 18:23:00,
2014-01-05 13:28:00,33.3,26.0,30.29,SE,135,3.3,4.0,75,0.00,,,0.01,Rainwise IP-100,2014-01-05 18:28:00,
2014-01-05 13:33:00,32.7,26.0,30.29,SE,135,2.1,4.0,74,0.00,,,0.01,Rainwise IP-100,2014-01-05 18:33:00,
2014-01-05 13:38:00,32.8,26.0,30.29,SE,135,3.0,3.0,75,0.00,,,0.01,Rainwise IP-100,2014-01-05 18:38:00,
2014-01-05 13:43:00,33.2,26.0,30.29,SE,135,1.2,3.0,75,0.00,,,0.01,Rainwise IP-100,2014-01-05 18:43:00,
2014-01-05 13:48:00,33.7,28.0,30.29,SE,135,2.6,3.0,75,0.00,,,0.01,Rainwise IP-100,2014-01-05 18:48:00,
2014-01-05 13:53:00,34.4,28.0,30.29,SSE,157,2.1,3.0,74,0.00,,,0.01,Rainwise IP-100,2014-01-05 18:53:00,
2014-01-05 13:58:00,34.8,28.0,30.29,SSE,157,3.0,3.0,73,0.06,,,0.02,Rainwise IP-100,2014-01-05 18:58:00,
2014-01-05 14:03:00,34.5,28.0,30.29,SSE,157,2.3,4.0,73,0.06,,,0.02,Rainwise IP-100,2014-01-05 19:03:00,
2014-01-05 14:08:00,34.7,28.0,30.29,ESE,112,0.0,2.0,74,0.00,,,0.02,Rainwise IP-100,2014-01-05 19:08:00,
2014-01-05 14:13:00,35.9,29.0,30.29,ESE,112,0.0,2.0,77,0.00,,,0.02,Rainwise IP-100,2014-01-05 19:13:00,
2014-01-05 14:18:00,37.2,31.0,30.29,NE,45,6.8,6.8,79,0.00,,,0.02,Rainwise IP-100,2014-01-05 19:18:00,
2014-01-05 14:23:00,36.8,31.0,30.30,NE,45,3.7,6.0,78,0.00,,,0.02,Rainwise IP-100,2014-01-05 19:23:00,
2014-01-05 14:28:00,36.0,29.0,30.30,ENE,67,0.0,4.0,74,0.00,,,0.02,Rainwise IP-100,2014-01-05 19:28:00,
2014-01-05 14:33:00,36.3,28.0,30.30,NE,45,2.3,4.0,73,0.00,,,0.02,Rainwise IP-100,2014-01-05 19:33:00,
2014-01-05 14:38:00,35.4,26.0,30.30,ESE,112,2.3,3.0,72,0.00,,,0.02,Rainwise IP-100,2014-01-05 19:38:00,
2014-01-05 14:43:00,34.0,26.0,30.30,SE,135,3.7,4.0,72,0.00,,,0.02,Rainwise IP-100,2014-01-05 19:43:00,
2014-01-05 14:48:00,33.5,28.0,30.30,ESE,112,4.0,5.0,74,0.00,,,0.02,Rainwise IP-100,2014-01-05 19:48:00,
2014-01-05 14:53:00,33.1,26.0,30.30,SE,135,3.7,4.0,74,0.00,,,0.02,Rainwise IP-100,2014-01-05 19:53:00,
2014-01-05 14:58:00,32.9,26.0,30.29,SE,135,3.5,4.0,75,0.06,,,0.03,Rainwise IP-100,2014-01-05 19:58:00,
2014-01-05 15:03:00,32.7,26.0,30.30,SE,135,3.5,4.0,75,0.06,,,0.03,Rainwise IP-100,2014-01-05 20:03:00,
2014-01-05 15:08:00,32.6,26.0,30.30,SE,135,1.6,3.0,74,0.00,,,0.03,Rainwise IP-100,2014-01-05 20:08:00,
2014-01-05 15:13:00,32.6,26.0,30.29,SE,135,1.6,2.0,74,0.00,,,0.03,Rainwise IP-100,2014-01-05 20:13:00,
2014-01-05 15:18:00,32.4,26.0,30.30,SE,135,1.2,2.0,75,0.00,,,0.03,Rainwise IP-100,2014-01-05 20:18:00,
2014-01-05 15:23:00,32.4,26.0,30.30,SE,135,0.0,2.0,75,0.00,,,0.03,Rainwise IP-100,2014-01-05 20:23:00,
2014-01-05 15:28:00,32.3,26.0,30.30,SE,135,0.0,0.0,75,0.00,,,0.03,Rainwise IP-100,2014-01-05 20:28:00,
2014-01-05 15:33:00,32.1,26.0,30.30,SE,135,0.0,0.0,75,0.00,,,0.03,Rainwise IP-100,2014-01-05 20:33:00,
2014-01-05 15:38:00,32.0,26.0,30.30,SE,135,1.4,1.4,75,0.00,,,0.03,Rainwise IP-100,2014-01-05 20:38:00,
2014-01-05 15:43:00,31.9,26.0,30.29,SE,135,2.1,2.1,75,0.00,,,0.03,Rainwise IP-100,2014-01-05 20:43:00,
2014-01-05 15:48:00,31.9,26.0,30.29,South,180,2.3,2.3,76,0.00,,,0.03,Rainwise IP-100,2014-01-05 20:48:00,
2014-01-05 15:53:00,31.8,26.0,30.30,South,180,0.0,2.0,76,0.00,,,0.03,Rainwise IP-100,2014-01-05 20:53:00,
2014-01-05 15:58:00,31.7,26.0,30.30,South,180,0.0,1.0,77,0.00,,,0.03,Rainwise IP-100,2014-01-05 20:58:00,
2014-01-05 16:03:00,31.5,26.0,30.29,South,180,0.0,1.0,77,0.00,,,0.03,Rainwise IP-100,2014-01-05 21:03:00,
2014-01-05 16:08:00,31.3,24.0,30.30,West,270,1.9,3.0,77,0.00,,,0.03,Rainwise IP-100,2014-01-05 21:08:00,
2014-01-05 16:13:00,31.1,24.0,30.30,West,270,1.6,2.0,78,0.00,,,0.03,Rainwise IP-100,2014-01-05 21:13:00,
2014-01-05 16:18:00,30.9,24.0,30.30,WSW,247,1.4,4.0,78,0.00,,,0.03,Rainwise IP-100,2014-01-05 21:18:00,
2014-01-05 16:23:00,30.7,24.0,30.30,WSW,247,1.6,2.0,78,0.00,,,0.03,Rainwise IP-100,2014-01-05 21:23:00,
2014-01-05 16:28:00,30.7,24.0,30.30,WSW,247,0.0,1.0,79,0.00,,,0.03,Rainwise IP-100,2014-01-05 21:28:00,
2014-01-05 16:33:00,30.9,26.0,30.30,WSW,247,0.0,1.0,80,0.00,,,0.03,Rainwise IP-100,2014-01-05 21:33:00,
2014-01-05 16:38:00,30.9,24.0,30.30,WSW,247,1.9,2.0,79,0.00,,,0.03,Rainwise IP-100,2014-01-05 21:38:00,
2014-01-05 16:43:00,30.6,24.0,30.30,WSW,247,2.3,2.3,79,0.00,,,0.03,Rainwise IP-100,2014-01-05 21:43:00,
2014-01-05 16:48:00,30.5,24.0,30.31,WSW,247,3.0,3.0,79,0.00,,,0.03,Rainwise IP-100,2014-01-05 21:48:00,
2014-01-05 16:53:00,30.3,24.0,30.31,WNW,292,1.4,3.0,79,0.00,,,0.03,Rainwise IP-100,2014-01-05 21:53:00,
2014-01-05 16:58:00,30.0,24.0,30.31,West,270,2.1,3.0,79,0.00,,,0.03,Rainwise IP-100,2014-01-05 21:58:00,
2014-01-05 17:03:00,29.9,26.0,30.31,WSW,247,1.4,3.0,80,0.00,,,0.03,Rainwise IP-100,2014-01-05 22:03:00,
2014-01-05 17:08:00,29.8,26.0,30.31,WSW,247,0.0,3.0,80,0.00,,,0.03,Rainwise IP-100,2014-01-05 22:08:00,
2014-01-05 17:13:00,29.8,26.0,30.32,SW,225,4.7,5.0,80,0.00,,,0.03,Rainwise IP-100,2014-01-05 22:13:00,
2014-01-05 17:18:00,30.0,26.0,30.32,West,270,0.0,4.0,80,0.00,,,0.03,Rainwise IP-100,2014-01-05 22:18:00,
2014-01-05 17:23:00,29.8,26.0,30.32,West,270,0.0,2.0,80,0.00,,,0.03,Rainwise IP-100,2014-01-05 22:23:00,
2014-01-05 17:28:00,29.6,26.0,30.32,West,270,0.0,2.0,80,0.00,,,0.03,Rainwise IP-100,2014-01-05 22:28:00,
2014-01-05 17:33:00,29.5,26.0,30.32,West,270,0.0,0.0,81,0.00,,,0.03,Rainwise IP-100,2014-01-05 22:33:00,
2014-01-05 17:38:00,29.3,24.0,30.32,WSW,247,0.0,2.0,81,0.00,,,0.03,Rainwise IP-100,2014-01-05 22:38:00,
2014-01-05 17:43:00,29.3,24.0,30.32,WSW,247,0.0,3.0,81,0.00,,,0.03,Rainwise IP-100,2014-01-05 22:43:00,
2014-01-05 17:48:00,29.2,24.0,30.32,WSW,247,1.4,2.0,81,0.00,,,0.03,Rainwise IP-100,2014-01-05 22:48:00,
2014-01-05 17:53:00,29.0,24.0,30.32,SW,225,1.9,3.0,82,0.00,,,0.03,Rainwise IP-100,2014-01-05 22:53:00,
2014-01-05 17:58:00,28.9,24.0,30.31,SW,225,1.6,4.0,82,0.00,,,0.03,Rainwise IP-100,2014-01-05 22:58:00,
2014-01-05 18:03:00,28.8,24.0,30.31,West,270,0.0,1.0,82,0.00,,,0.03,Rainwise IP-100,2014-01-05 23:03:00,
2014-01-05 18:08:00,28.5,24.0,30.31,West,270,2.3,3.0,82,0.00,,,0.03,Rainwise IP-100,2014-01-05 23:08:00,
2014-01-05 18:13:00,28.5,24.0,30.31,WSW,247,2.6,3.0,83,0.00,,,0.03,Rainwise IP-100,2014-01-05 23:13:00,
2014-01-05 18:18:00,28.7,24.0,30.31,WSW,247,1.9,3.0,83,0.00,,,0.03,Rainwise IP-100,2014-01-05 23:18:00,
2014-01-05 18:23:00,29.0,24.0,30.32,WSW,247,0.0,2.0,83,0.00,,,0.03,Rainwise IP-100,2014-01-05 23:23:00,
2014-01-05 18:28:00,29.2,24.0,30.32,West,270,2.1,2.1,83,0.00,,,0.03,Rainwise IP-100,2014-01-05 23:28:00,
2014-01-05 18:33:00,29.0,24.0,30.32,WNW,292,4.0,4.0,83,0.00,,,0.03,Rainwise IP-100,2014-01-05 23:33:00,
2014-01-05 18:38:00,28.7,24.0,30.32,WNW,292,2.6,4.0,83,0.00,,,0.03,Rainwise IP-100,2014-01-05 23:38:00,
2014-01-05 18:43:00,28.7,24.0,30.32,WNW,292,3.5,4.0,83,0.00,,,0.03,Rainwise IP-100,2014-01-05 23:43:00,
2014-01-05 18:48:00,28.9,24.0,30.32,WNW,292,3.3,4.0,84,0.00,,,0.03,Rainwise IP-100,2014-01-05 23:48:00,
2014-01-05 18:53:00,29.0,24.0,30.32,WNW,292,2.6,3.0,84,0.00,,,0.03,Rainwise IP-100,2014-01-05 23:53:00,
2014-01-05 18:58:00,29.0,24.0,30.32,WNW,292,3.7,3.7,84,0.00,,,0.03,Rainwise IP-100,2014-01-05 23:58:00,
2014-01-05 19:03:00,29.0,26.0,30.32,NW,315,1.9,3.0,85,0.00,,,0.03,Rainwise IP-100,2014-01-06 00:03:00,
2014-01-05 19:08:00,28.9,26.0,30.32,West,270,2.6,3.0,85,0.00,,,0.03,Rainwise IP-100,2014-01-06 00:08:00,
2014-01-05 19:13:00,29.0,26.0,30.32,West,270,2.6,4.0,85,0.00,,,0.03,Rainwise IP-100,2014-01-06 00:13:00,
2014-01-05 19:18:00,29.1,26.0,30.32,WSW,247,2.3,3.0,86,0.00,,,0.03,Rainwise IP-100,2014-01-06 00:18:00,
2014-01-05 19:23:00,28.8,26.0,30.31,SW,225,2.8,3.0,87,0.00,,,0.03,Rainwise IP-100,2014-01-06 00:23:00,
2014-01-05 19:28:00,28.4,24.0,30.32,SW,225,4.0,4.0,87,0.00,,,0.03,Rainwise IP-100,2014-01-06 00:28:00,
2014-01-05 19:33:00,28.6,26.0,30.32,WSW,247,3.3,4.0,88,0.00,,,0.03,Rainwise IP-100,2014-01-06 00:33:00,
2014-01-05 19:38:00,29.1,26.0,30.31,WSW,247,1.4,3.0,88,0.00,,,0.03,Rainwise IP-100,2014-01-06 00:38:00,
2014-01-05 19:43:00,29.1,26.0,30.31,West,270,0.0,1.0,89,0.00,,,0.03,Rainwise IP-100,2014-01-06 00:43:00,
2014-01-05 19:48:00,29.1,26.0,30.31,West,270,1.6,1.6,89,0.00,,,0.03,Rainwise IP-100,2014-01-06 00:48:00,
2014-01-05 19:53:00,29.0,26.0,30.32,West,270,1.6,2.0,90,0.00,,,0.03,Rainwise IP-100,2014-01-06 00:53:00,
2014-01-05 19:58:00,28.9,26.0,30.31,West,270,1.2,1.2,90,0.00,,,0.03,Rainwise IP-100,2014-01-06 00:58:00,
2014-01-05 20:03:00,29.2,26.0,30.32,West,270,1.4,2.0,90,0.00,,,0.03,Rainwise IP-100,2014-01-06 01:03:00,
2014-01-05 20:08:00,29.5,28.0,30.32,West,270,1.4,1.4,90,0.00,,,0.03,Rainwise IP-100,2014-01-06 01:08:00,
2014-01-05 20:13:00,29.6,28.0,30.32,West,270,1.4,1.4,90,0.00,,,0.03,Rainwise IP-100,2014-01-06 01:13:00,
2014-01-05 20:18:00,29.8,28.0,30.32,West,270,0.0,1.0,90,0.00,,,0.03,Rainwise IP-100,2014-01-06 01:18:00,
2014-01-05 20:23:00,29.8,28.0,30.31,West,270,0.0,0.0,90,0.00,,,0.03,Rainwise IP-100,2014-01-06 01:23:00,
2014-01-05 20:28:00,29.7,28.0,30.31,West,270,0.0,0.0,90,0.00,,,0.03,Rainwise IP-100,2014-01-06 01:28:00,
2014-01-05 20:33:00,29.6,28.0,30.30,West,270,0.0,0.0,90,0.00,,,0.03,Rainwise IP-100,2014-01-06 01:33:00,
2014-01-05 20:38:00,29.6,28.0,30.31,West,270,0.0,0.0,90,0.00,,,0.03,Rainwise IP-100,2014-01-06 01:38:00,
2014-01-05 20:43:00,29.7,28.0,30.30,West,270,0.0,0.0,91,0.00,,,0.03,Rainwise IP-100,2014-01-06 01:43:00,
2014-01-05 20:48:00,29.7,28.0,30.30,West,270,0.0,0.0,91,0.00,,,0.03,Rainwise IP-100,2014-01-06 01:48:00,
2014-01-05 20:53:00,29.7,28.0,30.30,West,270,0.0,0.0,91,0.00,,,0.03,Rainwise IP-100,2014-01-06 01:53:00,
2014-01-05 20:58:00,29.7,28.0,30.30,SW,225,2.8,3.0,91,0.00,,,0.03,Rainwise IP-100,2014-01-06 01:58:00,
2014-01-05 21:03:00,29.8,28.0,30.29,SW,225,3.0,3.0,91,0.00,,,0.03,Rainwise IP-100,2014-01-06 02:03:00,
2014-01-05 21:08:00,30.2,28.0,30.29,South,180,2.3,3.0,91,0.00,,,0.03,Rainwise IP-100,2014-01-06 02:08:00,
2014-01-05 21:13:00,30.7,28.0,30.29,South,180,1.6,2.0,91,0.00,,,0.03,Rainwise IP-100,2014-01-06 02:13:00,
2014-01-05 21:18:00,30.9,28.0,30.29,South,180,1.4,1.4,90,0.00,,,0.03,Rainwise IP-100,2014-01-06 02:18:00,
2014-01-05 21:23:00,31.0,28.0,30.29,SW,225,0.0,1.0,90,0.00,,,0.03,Rainwise IP-100,2014-01-06 02:23:00,
2014-01-05 21:28:00,31.0,28.0,30.29,SW,225,0.0,1.0,90,0.00,,,0.03,Rainwise IP-100,2014-01-06 02:28:00,
2014-01-05 21:33:00,31.0,28.0,30.28,SW,225,0.0,0.0,90,0.00,,,0.03,Rainwise IP-100,2014-01-06 02:33:00,
2014-01-05 21:38:00,31.0,28.0,30.28,SW,225,0.0,0.0,89,0.00,,,0.03,Rainwise IP-100,2014-01-06 02:38:00,
2014-01-05 21:43:00,31.0,28.0,30.27,SW,225,0.0,0.0,89,0.00,,,0.03,Rainwise IP-100,2014-01-06 02:43:00,
2014-01-05 21:48:00,31.1,28.0,30.27,South,180,1.9,1.9,89,0.00,,,0.03,Rainwise IP-100,2014-01-06 02:48:00,
2014-01-05 21:53:00,31.3,28.0,30.26,South,180,2.6,2.6,89,0.00,,,0.03,Rainwise IP-100,2014-01-06 02:53:00,
2014-01-05 21:58:00,31.6,29.0,30.26,SSE,157,3.3,4.0,89,0.00,,,0.03,Rainwise IP-100,2014-01-06 02:58:00,
2014-01-05 22:03:00,31.9,29.0,30.26,SSE,157,3.0,4.0,89,0.00,,,0.03,Rainwise IP-100,2014-01-06 03:03:00,
2014-01-05 22:08:00,32.0,29.0,30.26,SSE,157,2.8,3.0,90,0.00,,,0.03,Rainwise IP-100,2014-01-06 03:08:00,
2014-01-05 22:13:00,32.0,29.0,30.26,SE,135,4.0,4.0,90,0.00,,,0.03,Rainwise IP-100,2014-01-06 03:13:00,
2014-01-05 22:18:00,32.1,29.0,30.25,SE,135,2.3,4.0,90,0.00,,,0.03,Rainwise IP-100,2014-01-06 03:18:00,
2014-01-05 22:23:00,32.2,29.0,30.25,South,180,2.1,3.0,91,0.00,,,0.03,Rainwise IP-100,2014-01-06 03:23:00,
2014-01-05 22:28:00,32.2,29.0,30.24,SE,135,2.8,3.0,91,0.00,,,0.03,Rainwise IP-100,2014-01-06 03:28:00,
2014-01-05 22:33:00,32.4,31.0,30.24,SE,135,1.9,4.0,92,0.00,,,0.03,Rainwise IP-100,2014-01-06 03:33:00,
2014-01-05 22:38:00,32.5,31.0,30.24,SE,135,2.6,5.0,92,0.00,,,0.03,Rainwise IP-100,2014-01-06 03:38:00,
2014-01-05 22:43:00,32.7,31.0,30.24,SE,135,2.8,3.0,92,0.00,,,0.03,Rainwise IP-100,2014-01-06 03:43:00,
2014-01-05 22:48:00,33.1,32.0,30.24,SSE,157,3.7,6.0,94,0.00,,,0.03,Rainwise IP-100,2014-01-06 03:48:00,
2014-01-05 22:53:00,33.6,33.0,30.23,SSE,157,4.4,6.0,95,0.00,,,0.03,Rainwise IP-100,2014-01-06 03:53:00,
2014-01-05 22:58:00,33.8,33.0,30.22,SE,135,5.8,5.8,95,0.00,,,0.03,Rainwise IP-100,2014-01-06 03:58:00,
2014-01-05 23:03:00,33.9,33.0,30.21,SSE,157,5.1,6.0,96,0.00,,,0.03,Rainwise IP-100,2014-01-06 04:03:00,
2014-01-05 23:08:00,33.9,33.0,30.20,SSE,157,5.4,6.0,96,0.00,,,0.03,Rainwise IP-100,2014-01-06 04:08:00,
2014-01-05 23:13:00,33.8,33.0,30.20,SSE,157,3.3,5.0,96,0.00,,,0.03,Rainwise IP-100,2014-01-06 04:13:00,
2014-01-05 23:18:00,33.9,33.0,30.20,South,180,3.3,4.0,97,0.00,,,0.03,Rainwise IP-100,2014-01-06 04:18:00,
2014-01-05 23:23:00,34.0,33.0,30.20,South,180,2.1,4.0,97,0.00,,,0.03,Rainwise IP-100,2014-01-06 04:23:00,
2014-01-05 23:28:00,34.1,33.0,30.19,South,180,2.6,3.0,97,0.00,,,0.03,Rainwise IP-100,2014-01-06 04:28:00,
2014-01-05 23:33:00,34.2,35.0,30.19,South,180,1.4,2.0,98,0.00,,,0.03,Rainwise IP-100,2014-01-06 04:33:00,
2014-01-05 23:38:00,34.3,35.0,30.19,South,180,0.0,1.0,98,0.00,,,0.03,Rainwise IP-100,2014-01-06 04:38:00,
2014-01-05 23:43:00,34.4,35.0,30.18,ESE,112,1.2,2.0,98,0.00,,,0.03,Rainwise IP-100,2014-01-06 04:43:00,
2014-01-05 23:48:00,34.5,35.0,30.18,East,90,1.9,2.0,98,0.00,,,0.03,Rainwise IP-100,2014-01-06 04:48:00,
2014-01-05 23:53:00,34.6,35.0,30.18,East,90,3.5,3.5,98,0.00,,,0.03,Rainwise IP-100,2014-01-06 04:53:00,
2014-01-05 23:58:00,34.7,35.0,30.18,East,90,4.7,5.0,98,0.00,,,0.03,Rainwise IP-100,2014-01-06 04:58:00,